STARLINK-35331

Last updated on Tue Dec 16 2025 00:02:05 GMT+0000 (Coordinated Universal Time)

1 66468U 25262N 25349.21397735 .00030487 00000+0 73323-3 0 9999 2 66468 42.9990 56.9906 0001346 279.5484 80.5220 15.40738124 5943
UTC large
Height (km)
Speed (km/s)
/
Latitude / Longitude
Inclination (degrees)
Orbital Period (minutes)
Azimuth
Elevation
Range (km)
Doppler Factor

Next 0 passes for location: London (51.5072 / 0.1276)

Sorry there are no passes over London.